Terminal Aerodrome Forecast
Issued by NWS Mt. Holly, NJ

Home | Current Version | Previous Version | Text Only | Print | Product List | Glossary On
Versions: 1 2 3 4 5 6 7 8 9 10 11 12 13 14 15 16 17 18 19 20
000
FTUS41 KPHI 242332
TAFILG
TAF
KILG 242332Z 2500/2524 27006KT P6SM FEW250
     FM251300 32006KT P6SM FEW250
     FM251700 29010G18KT P6SM SCT250=

USA.gov is the U.S. government's official web portal to all federal, state and local government web resources and services.